TimeCDT,TemperatureF,Dew PointF,Humidity,Sea Level PressureIn,VisibilityMPH,Wind Direction,Wind SpeedMPH,Gust SpeedMPH,PrecipitationIn,Events,Conditions,WindDirDegrees,DateUTC
12:14 AM,23.0,15.8,74,30.27,10.0,Calm,Calm,-,N/A,,Clear,0,2012-10-07 05:14:00
12:34 AM,23.0,17.6,80,30.27,10.0,Calm,Calm,-,N/A,,Clear,0,2012-10-07 05:34:00
12:55 AM,24.8,17.6,74,30.26,10.0,Calm,Calm,-,N/A,,Clear,0,2012-10-07 05:55:00
1:14 AM,23.0,15.8,74,30.26,10.0,Calm,Calm,-,N/A,,Clear,0,2012-10-07 06:14:00
1:34 AM,23.0,17.6,80,30.26,10.0,Calm,Calm,-,N/A,,Clear,0,2012-10-07 06:34:00
2:14 AM,21.2,14.0,74,30.26,10.0,Calm,Calm,-,N/A,,Clear,0,2012-10-07 07:14:00
2:34 AM,21.2,14.0,74,30.26,10.0,Calm,Calm,-,N/A,,Clear,0,2012-10-07 07:34:00
2:55 AM,19.4,14.0,80,30.25,10.0,Calm,Calm,-,N/A,,Clear,0,2012-10-07 07:55:00
3:14 AM,19.4,14.0,80,30.24,10.0,Calm,Calm,-,N/A,,Clear,0,2012-10-07 08:14:00
3:34 AM,21.2,15.8,80,30.24,10.0,Calm,Calm,-,N/A,,Clear,0,2012-10-07 08:34:00
3:55 AM,19.4,14.0,80,30.23,10.0,Calm,Calm,-,N/A,,Clear,0,2012-10-07 08:55:00
4:14 AM,19.4,14.0,80,30.23,10.0,Calm,Calm,-,N/A,,Clear,0,2012-10-07 09:14:00
4:34 AM,19.4,14.0,80,30.22,10.0,Calm,Calm,-,N/A,,Clear,0,2012-10-07 09:34:00
4:55 AM,19.4,14.0,80,30.22,10.0,Calm,Calm,-,N/A,,Clear,0,2012-10-07 09:55:00
5:14 AM,19.4,14.0,80,30.21,10.0,Calm,Calm,-,N/A,,Clear,0,2012-10-07 10:14:00
5:34 AM,19.4,15.8,86,30.21,10.0,Calm,Calm,-,N/A,,Clear,0,2012-10-07 10:34:00
5:55 AM,19.4,14.0,80,30.20,10.0,Calm,Calm,-,N/A,,Clear,0,2012-10-07 10:55:00
6:14 AM,19.4,14.0,80,30.20,7.0,Calm,Calm,-,N/A,,Clear,0,2012-10-07 11:14:00
6:54 AM,17.6,12.2,79,30.20,10.0,Calm,Calm,-,N/A,,Clear,0,2012-10-07 11:54:00
7:14 AM,14.0,10.4,86,30.20,10.0,Calm,Calm,-,N/A,,Clear,0,2012-10-07 12:14:00
7:35 AM,15.8,12.2,86,30.19,10.0,Calm,Calm,-,N/A,,Clear,0,2012-10-07 12:35:00
7:54 AM,17.6,12.2,79,30.19,10.0,Calm,Calm,-,N/A,,Clear,0,2012-10-07 12:54:00
8:14 AM,19.4,14.0,80,30.19,10.0,Calm,Calm,-,N/A,,Clear,0,2012-10-07 13:14:00
8:54 AM,23.0,19.4,86,30.17,10.0,South,3.5,-,N/A,,Clear,170,2012-10-07 13:54:00
9:14 AM,26.6,19.4,74,30.17,10.0,South,3.5,-,N/A,,Clear,180,2012-10-07 14:14:00
9:34 AM,30.2,21.2,69,30.16,10.0,South,3.5,-,N/A,,Clear,170,2012-10-07 14:34:00
9:54 AM,33.8,23.0,65,30.16,10.0,SSE,3.5,-,N/A,,Clear,160,2012-10-07 14:54:00
10:14 AM,41.0,23.0,49,30.15,10.0,SSW,9.2,-,N/A,,Clear,210,2012-10-07 15:14:00
10:34 AM,42.8,23.0,46,30.14,10.0,SW,11.5,-,N/A,,Clear,230,2012-10-07 15:34:00
10:54 AM,44.6,23.0,43,30.14,10.0,SW,11.5,-,N/A,,Clear,220,2012-10-07 15:54:00
11:15 AM,46.4,24.8,43,30.13,10.0,SW,11.5,-,N/A,,Clear,230,2012-10-07 16:15:00
11:34 AM,46.4,23.0,40,30.12,10.0,SW,16.1,-,N/A,,Clear,220,2012-10-07 16:34:00
12:14 PM,50.0,21.2,32,30.10,10.0,WSW,13.8,20.7,N/A,,Clear,250,2012-10-07 17:14:00
12:34 PM,50.0,19.4,30,30.09,10.0,WSW,16.1,20.7,N/A,,Clear,240,2012-10-07 17:34:00
12:55 PM,51.8,19.4,28,30.08,10.0,West,16.1,21.9,N/A,,Clear,260,2012-10-07 17:55:00
1:14 PM,53.6,17.6,24,30.07,10.0,WSW,16.1,20.7,N/A,,Clear,240,2012-10-07 18:14:00
1:34 PM,53.6,17.6,24,30.05,10.0,WSW,16.1,-,N/A,,Clear,240,2012-10-07 18:34:00
1:55 PM,53.6,17.6,24,30.03,10.0,WSW,12.7,23.0,N/A,,Clear,240,2012-10-07 18:55:00
2:14 PM,53.6,17.6,24,30.02,10.0,WSW,15.0,23.0,N/A,,Clear,240,2012-10-07 19:14:00
2:34 PM,53.6,17.6,24,30.01,10.0,SW,16.1,21.9,N/A,,Clear,220,2012-10-07 19:34:00
2:55 PM,55.4,17.6,23,30.00,10.0,WSW,16.1,20.7,N/A,,Clear,250,2012-10-07 19:55:00
3:14 PM,55.4,17.6,23,29.99,10.0,WSW,13.8,21.9,N/A,,Clear,240,2012-10-07 20:14:00
3:34 PM,55.4,17.6,23,29.99,10.0,WSW,13.8,21.9,N/A,,Clear,240,2012-10-07 20:34:00
3:55 PM,55.4,15.8,21,29.98,10.0,WSW,17.3,-,N/A,,Clear,250,2012-10-07 20:55:00
4:14 PM,55.4,15.8,21,29.97,10.0,WSW,10.4,19.6,N/A,,Clear,240,2012-10-07 21:14:00
4:34 PM,55.4,14.0,20,29.96,10.0,WSW,16.1,26.5,N/A,,Clear,240,2012-10-07 21:34:00
4:54 PM,55.4,15.8,21,29.95,10.0,WSW,13.8,17.3,N/A,,Clear,250,2012-10-07 21:54:00
5:14 PM,55.4,15.8,21,29.94,10.0,WSW,15.0,-,N/A,,Clear,240,2012-10-07 22:14:00
5:34 PM,55.4,15.8,21,29.93,10.0,WSW,12.7,21.9,N/A,,Clear,240,2012-10-07 22:34:00
5:55 PM,55.4,15.8,21,29.93,10.0,SW,12.7,-,N/A,,Clear,230,2012-10-07 22:55:00
6:14 PM,53.6,15.8,22,29.92,10.0,SW,9.2,-,N/A,,Clear,230,2012-10-07 23:14:00
6:34 PM,51.8,17.6,26,29.92,10.0,SW,6.9,-,N/A,,Scattered Clouds,220,2012-10-07 23:34:00
6:55 PM,46.4,15.8,29,29.91,10.0,WSW,4.6,-,N/A,,Scattered Clouds,250,2012-10-07 23:55:00
7:14 PM,46.4,15.8,29,29.91,10.0,SW,5.8,-,N/A,,Clear,230,2012-10-08 00:14:00
7:34 PM,41.0,15.8,36,29.91,10.0,SW,4.6,-,N/A,,Clear,220,2012-10-08 00:34:00
7:54 PM,39.2,15.8,39,29.91,10.0,SW,3.5,-,N/A,,Scattered Clouds,230,2012-10-08 00:54:00
8:15 PM,39.2,17.6,42,29.91,10.0,Calm,Calm,-,N/A,,Mostly Cloudy,0,2012-10-08 01:15:00
8:34 PM,41.0,19.4,42,29.91,10.0,Calm,Calm,-,N/A,,Mostly Cloudy,0,2012-10-08 01:34:00
8:54 PM,41.0,23.0,49,29.91,10.0,Calm,Calm,-,N/A,,Scattered Clouds,0,2012-10-08 01:54:00
9:14 PM,39.2,21.2,49,29.91,10.0,Calm,Calm,-,N/A,,Scattered Clouds,0,2012-10-08 02:14:00
9:34 PM,35.6,17.6,48,29.91,10.0,South,3.5,-,N/A,,Scattered Clouds,170,2012-10-08 02:34:00
9:54 PM,32.0,17.6,55,29.90,10.0,South,5.8,-,N/A,,Clear,180,2012-10-08 02:54:00
10:14 PM,33.8,17.6,52,29.90,10.0,South,4.6,-,N/A,,Clear,180,2012-10-08 03:14:00
10:34 PM,32.0,17.6,55,29.90,10.0,South,5.8,-,N/A,,Clear,180,2012-10-08 03:34:00
10:54 PM,32.0,17.6,55,29.90,10.0,South,5.8,-,N/A,,Clear,180,2012-10-08 03:54:00
11:14 PM,35.6,17.6,48,29.89,10.0,Calm,Calm,-,N/A,,Clear,0,2012-10-08 04:14:00
11:35 PM,35.6,17.6,48,29.88,10.0,South,3.5,-,N/A,,Clear,170,2012-10-08 04:35:00
11:54 PM,35.6,21.2,56,29.88,10.0,Calm,Calm,-,N/A,,Clear,0,2012-10-08 04:54:00